When you browse on this site, cookies collect data to enhance your experience and personalize the content and advertising you see.
Visit our Privacy Policy to learn more. By continuing to use the site, you agree to this use of cookies and data.
  • In Romania
  • List of Countries
  • For 7 days
  • Water Temperature
  • Satellite Maps
  • Weather Map
  • Weather Widgets
  • user-avatar
    Login

    Hourly Weather Ovcharovka

    Today, 18 February, Monday

    Time Temperature Precipitation Wind Pressure Humidity
    00:00 -6°C° 0 mm 8 mps 732 mmHg 81%
    01:00 -6°C° 0 mm 8 mps 733 mmHg 82%
    02:00 -6°C° 0 mm 8 mps 734 mmHg 82%
    03:00 -6°C° 0 mm 6 mps 734 mmHg 86%
    04:00 -6°C° 0 mm 6 mps 735 mmHg 84%
    05:00 -7°C° 0 mm 7 mps 735 mmHg 83%
    06:00 -8°C° 0 mm 8 mps 736 mmHg 82%
    07:00 -8°C° 0 mm 8 mps 737 mmHg 82%
    08:00 -10°C° 0 mm 8 mps 738 mmHg 81%
    09:00 -10°C° 0 mm 9 mps 738 mmHg 81%
    10:00 -9°C° 0 mm 9 mps 739 mmHg 80%
    11:00 -9°C° 0 mm 9 mps 739 mmHg 79%
    12:00 -9°C° 0 mm 9 mps 740 mmHg 79%
    13:00 -8°C° 0 mm 8 mps 741 mmHg 79%
    14:00 -8°C° 0 mm 8 mps 742 mmHg 79%
    15:00 -6°C° 0 mm 6 mps 742 mmHg 79%
    16:00 -6°C° 0 mm 6 mps 742 mmHg 80%
    17:00 -8°C° 0 mm 6 mps 743 mmHg 81%
    18:00 -8°C° 0 mm 6 mps 744 mmHg 81%
    19:00 -9°C° 0 mm 6 mps 744 mmHg 82%
    20:00 -10°C° 0 mm 5 mps 745 mmHg 84%
    21:00 -10°C° 0 mm 5 mps 746 mmHg 85%
    22:00 -11°C° 0 mm 4 mps 746 mmHg 87%
    23:00 -12°C° 0 mm 4 mps 746 mmHg 89%

    Tomorrow, 19 February, Tuesday

    Time Temperature Precipitation Wind Pressure Humidity
    00:00 -14°C° 0 mm 3 mps 747 mmHg 91%
    01:00 -14°C° 0 mm 3 mps 747 mmHg 91%
    02:00 -14°C° 0 mm 2 mps 747 mmHg 91%
    03:00 -14°C° 0 mm 2 mps 747 mmHg 91%
    04:00 -15°C° 0 mm 2 mps 748 mmHg 91%
    05:00 -15°C° 0 mm 2 mps 748 mmHg 91%
    06:00 -15°C° 0 mm 2 mps 748 mmHg 90%
    07:00 -14°C° 0 mm 2 mps 748 mmHg 90%
    08:00 -15°C° 0 mm 3 mps 748 mmHg 90%
    09:00 -15°C° 0 mm 3 mps 748 mmHg 90%
    10:00 -14°C° 0 mm 4 mps 747 mmHg 90%
    11:00 -11°C° 0 mm 4 mps 747 mmHg 89%
    12:00 -11°C° 0 mm 5 mps 746 mmHg 88%
    13:00 -10°C° 0 mm 5 mps 746 mmHg 86%
    14:00 -9°C° 0 mm 6 mps 745 mmHg 85%
    15:00 -8°C° 0 mm 6 mps 745 mmHg 84%
    16:00 -8°C° 0 mm 6 mps 744 mmHg 84%
    17:00 -8°C° 0 mm 6 mps 744 mmHg 85%
    18:00 -8°C° 0 mm 6 mps 744 mmHg 85%
    19:00 -8°C° 0 mm 6 mps 743 mmHg 86%
    20:00 -8°C° 0 mm 6 mps 743 mmHg 86%
    21:00 -9°C° 0 mm 6 mps 743 mmHg 87%
    22:00 -9°C° 0 mm 6 mps 742 mmHg 86%
    23:00 -9°C° 0 mm 6 mps 741 mmHg 86%

    Day after tomorrow, 20 February, Wednesday

    Time Temperature Precipitation Wind Pressure Humidity
    00:00 -10°C° 0 mm 6 mps 741 mmHg 85%
    01:00 -10°C° 0 mm 6 mps 740 mmHg 85%
    02:00 -11°C° 0 mm 7 mps 740 mmHg 85%
    03:00 -11°C° 0 mm 7 mps 740 mmHg 85%
    04:00 -9°C° 0 mm 7 mps 739 mmHg 86%
    05:00 -9°C° 0 mm 7 mps 738 mmHg 88%
    06:00 -9°C° 0 mm 7 mps 737 mmHg 89%
    07:00 -8°C° 0 mm 7 mps 737 mmHg 90%
    08:00 -7°C° 0 mm 7 mps 737 mmHg 90%
    09:00 -6°C° 0 mm 7 mps 737 mmHg 90%
    10:00 -6°C° 0 mm 7 mps 736 mmHg 90%
    11:00 -4°C° 0 mm 7 mps 736 mmHg 90%
    12:00 -3°C° 0 mm 7 mps 736 mmHg 90%
    13:00 -3°C° 0.1 mm 7 mps 735 mmHg 90%
    14:00 -3°C° 0.1 mm 6 mps 735 mmHg 90%
    15:00 -3°C° 0.1 mm 6 mps 735 mmHg 90%
    16:00 -3°C° 0.2 mm 6 mps 734 mmHg 90%
    17:00 -3°C° 0.2 mm 6 mps 734 mmHg 91%
    18:00 -2°C° 0.2 mm 6 mps 734 mmHg 91%
    19:00 -2°C° 0 mm 6 mps 734 mmHg 91%
    20:00 -1°C° 0 mm 5 mps 734 mmHg 91%
    21:00 -1°C° 0 mm 5 mps 734 mmHg 91%
    22:00 -1°C° 0 mm 5 mps 733 mmHg 91%
    23:00 -1°C° 0 mm 5 mps 733 mmHg 92%

    21 February, Thursday

    Time Temperature Precipitation Wind Pressure Humidity
    00:00 -1°C° 0 mm 5 mps 733 mmHg 92%
    01:00 -1°C° 0.1 mm 5 mps 732 mmHg 92%
    02:00 -2°C° 0.1 mm 6 mps 732 mmHg 91%
    03:00 -2°C° 0.1 mm 6 mps 731 mmHg 91%
    04:00 -2°C° 0.3 mm 6 mps 731 mmHg 91%
    05:00 -2°C° 0.3 mm 6 mps 731 mmHg 91%
    06:00 -2°C° 0.3 mm 6 mps 730 mmHg 91%
    07:00 -3°C° 0.1 mm 6 mps 730 mmHg 90%
    08:00 -4°C° 0.1 mm 6 mps 730 mmHg 89%
    09:00 -5°C° 0.1 mm 6 mps 730 mmHg 89%
    10:00 -6°C° 0 mm 5 mps 730 mmHg 90%
    11:00 -6°C° 0 mm 5 mps 731 mmHg 90%
    12:00 -7°C° 0 mm 4 mps 731 mmHg 91%
    13:00 -6°C° 0 mm 5 mps 731 mmHg 90%
    14:00 -5°C° 0 mm 5 mps 731 mmHg 89%
    15:00 -4°C° 0 mm 5 mps 731 mmHg 87%
    16:00 -4°C° 0.1 mm 6 mps 731 mmHg 87%
    17:00 -5°C° 0.1 mm 6 mps 731 mmHg 87%
    18:00 -5°C° 0.1 mm 6 mps 732 mmHg 87%
    19:00 -6°C° 0.1 mm 6 mps 732 mmHg 88%
    20:00 -7°C° 0.1 mm 7 mps 732 mmHg 88%
    21:00 -8°C° 0.1 mm 7 mps 733 mmHg 89%
    22:00 -8°C° 0.1 mm 7 mps 733 mmHg 88%
    23:00 -10°C° 0.1 mm 8 mps 734 mmHg 87%

    22 February, Friday

    Time Temperature Precipitation Wind Pressure Humidity
    00:00 -11°C° 0.1 mm 8 mps 734 mmHg 86%
    01:00 -12°C° 0.1 mm 8 mps 735 mmHg 86%
    02:00 -12°C° 0.1 mm 8 mps 736 mmHg 86%
    03:00 -13°C° 0.1 mm 8 mps 736 mmHg 86%
    04:00 -13°C° 0 mm 8 mps 737 mmHg 86%
    05:00 -15°C° 0 mm 8 mps 738 mmHg 85%
    06:00 -16°C° 0 mm 8 mps 738 mmHg 85%
    07:00 -16°C° 0.1 mm 8 mps 739 mmHg 85%
    08:00 -16°C° 0.1 mm 8 mps 740 mmHg 84%
    09:00 -17°C° 0.1 mm 9 mps 741 mmHg 84%
    10:00 -17°C° 0 mm 9 mps 742 mmHg 82%
    11:00 -17°C° 0 mm 9 mps 742 mmHg 80%
    12:00 -17°C° 0 mm 9 mps 743 mmHg 78%
    13:00 -16°C° 0 mm 8 mps 743 mmHg 78%
    14:00 -16°C° 0 mm 8 mps 744 mmHg 78%
    15:00 -15°C° 0 mm 8 mps 744 mmHg 78%
    16:00 -15°C° 0 mm 7 mps 745 mmHg 79%
    17:00 -15°C° 0 mm 7 mps 746 mmHg 80%
    18:00 -16°C° 0 mm 6 mps 746 mmHg 81%
    19:00 -16°C° 0 mm 6 mps 747 mmHg 82%
    20:00 -17°C° 0 mm 6 mps 747 mmHg 84%
    21:00 -17°C° 0 mm 6 mps 748 mmHg 85%
    22:00 -18°C° 0 mm 5 mps 748 mmHg 85%
    23:00 -18°C° 0 mm 5 mps 749 mmHg 86%

    23 February, Saturday

    Time Temperature Precipitation Wind Pressure Humidity
    00:00 -19°C° 0 mm 5 mps 749 mmHg 86%
    01:00 -19°C° 0 mm 5 mps 749 mmHg 87%
    02:00 -18°C° 0 mm 5 mps 750 mmHg 88%
    03:00 -18°C° 0 mm 5 mps 750 mmHg 89%
    04:00 -18°C° 0 mm 5 mps 750 mmHg 90%
    05:00 -18°C° 0 mm 5 mps 750 mmHg 90%
    06:00 -18°C° 0 mm 5 mps 750 mmHg 90%
    07:00 -18°C° 0 mm 5 mps 750 mmHg 90%
    08:00 -17°C° 0 mm 5 mps 751 mmHg 90%
    09:00 -17°C° 0 mm 5 mps 751 mmHg 89%
    10:00 -17°C° 0 mm 5 mps 751 mmHg 88%
    11:00 -15°C° 0 mm 5 mps 751 mmHg 86%
    12:00 -15°C° 0 mm 5 mps 751 mmHg 84%
    13:00 -15°C° 0 mm 5 mps 751 mmHg 84%
    14:00 -15°C° 0 mm 4 mps 751 mmHg 84%
    15:00 -14°C° 0 mm 4 mps 751 mmHg 84%
    16:00 -15°C° 0 mm 4 mps 751 mmHg 86%
    17:00 -15°C° 0 mm 3 mps 751 mmHg 88%
    18:00 -16°C° 0 mm 3 mps 751 mmHg 90%
    19:00 -16°C° 0 mm 2 mps 751 mmHg 90%
    20:00 -17°C° 0 mm 2 mps 752 mmHg 91%
    21:00 -17°C° 0 mm 2 mps 752 mmHg 91%
    22:00 -18°C° 0 mm 2 mps 752 mmHg 91%
    23:00 -18°C° 0 mm 2 mps 752 mmHg 91%
    Show more